Year,Month,Day,Hour,Minute,Value (Times are PST for temperature in C)
2007,10,23,00,00,9.80
2007,10,23,00,01,9.80
2007,10,23,00,02,9.80
2007,10,23,00,03,9.70
2007,10,23,00,04,9.70
2007,10,23,00,05,9.60
2007,10,23,00,06,9.60
2007,10,23,00,07,9.60
2007,10,23,00,08,9.60
2007,10,23,00,09,9.60
2007,10,23,00,10,9.60
2007,10,23,00,11,9.60
2007,10,23,00,12,9.60
2007,10,23,00,13,9.60
2007,10,23,00,14,9.60
2007,10,23,00,15,9.60
2007,10,23,00,16,9.60
2007,10,23,00,17,9.60
2007,10,23,00,18,9.50
2007,10,23,00,19,9.50
2007,10,23,00,20,9.40
2007,10,23,00,21,9.40
2007,10,23,00,22,9.30
2007,10,23,00,23,9.30
2007,10,23,00,24,9.30
2007,10,23,00,25,9.30
2007,10,23,00,26,9.30
2007,10,23,00,27,9.30
2007,10,23,00,28,9.30
2007,10,23,00,29,9.30
2007,10,23,00,30,9.30
2007,10,23,00,31,9.20
2007,10,23,00,32,9.20
2007,10,23,00,33,9.20
2007,10,23,00,34,9.20
2007,10,23,00,35,9.20
2007,10,23,00,36,9.20
2007,10,23,00,37,9.20
2007,10,23,00,38,9.20
2007,10,23,00,39,9.10
2007,10,23,00,40,9.10
2007,10,23,00,41,9.10
2007,10,23,00,42,9.10
2007,10,23,00,43,9.10
2007,10,23,00,44,9.10
2007,10,23,00,45,9.10
2007,10,23,00,46,9.20
2007,10,23,00,47,9.20
2007,10,23,00,48,9.20
2007,10,23,00,49,9.30
2007,10,23,00,50,9.40
2007,10,23,00,51,9.50
2007,10,23,00,52,9.60
2007,10,23,00,53,9.70
2007,10,23,00,54,9.80
2007,10,23,00,55,9.90
2007,10,23,00,56,10.00
2007,10,23,00,57,10.10
2007,10,23,00,58,10.10
2007,10,23,00,59,10.10
2007,10,23,01,00,10.10
2007,10,23,01,01,10.10
2007,10,23,01,02,10.20
2007,10,23,01,03,10.20
2007,10,23,01,04,10.20
2007,10,23,01,05,10.30
2007,10,23,01,06,10.30
2007,10,23,01,07,10.30
2007,10,23,01,08,10.40
2007,10,23,01,09,10.40
2007,10,23,01,10,10.40
2007,10,23,01,11,10.50
2007,10,23,01,12,10.50
2007,10,23,01,13,10.50
2007,10,23,01,14,10.50
2007,10,23,01,15,10.50
2007,10,23,01,16,10.50
2007,10,23,01,17,10.60
2007,10,23,01,18,10.60
2007,10,23,01,19,10.50
2007,10,23,01,20,10.50
2007,10,23,01,21,10.50
2007,10,23,01,22,10.40
2007,10,23,01,23,10.40
2007,10,23,01,24,10.30
2007,10,23,01,25,10.30
2007,10,23,01,26,10.30
2007,10,23,01,27,10.40
2007,10,23,01,28,10.30
2007,10,23,01,29,10.30
2007,10,23,01,30,10.40
2007,10,23,01,31,10.40
2007,10,23,01,32,10.40
2007,10,23,01,33,10.40
2007,10,23,01,34,10.40
2007,10,23,01,35,10.40
2007,10,23,01,36,10.40
2007,10,23,01,37,10.40
2007,10,23,01,38,10.50
2007,10,23,01,39,10.60
2007,10,23,01,40,10.60
2007,10,23,01,41,10.60
2007,10,23,01,42,10.60
2007,10,23,01,43,10.70
2007,10,23,01,44,10.80
2007,10,23,01,45,10.90
2007,10,23,01,46,10.90
2007,10,23,01,47,11.00
2007,10,23,01,48,11.10
2007,10,23,01,49,11.20
2007,10,23,01,50,11.20
2007,10,23,01,51,11.20
2007,10,23,01,52,11.20
2007,10,23,01,53,11.20
2007,10,23,01,54,11.30
2007,10,23,01,55,11.30
2007,10,23,01,56,11.30
2007,10,23,01,57,11.30
2007,10,23,01,58,11.30
2007,10,23,01,59,11.30
2007,10,23,02,00,11.30
2007,10,23,02,01,11.30
2007,10,23,02,02,11.30
2007,10,23,02,03,11.30
2007,10,23,02,04,11.30
2007,10,23,02,05,11.30
2007,10,23,02,06,11.30
2007,10,23,02,07,11.30
2007,10,23,02,08,11.30
2007,10,23,02,09,11.30
2007,10,23,02,10,11.30
2007,10,23,02,11,11.30
2007,10,23,02,12,11.30
2007,10,23,02,13,11.30
2007,10,23,02,14,11.30
2007,10,23,02,15,11.40
2007,10,23,02,16,11.40
2007,10,23,02,17,11.40
2007,10,23,02,18,11.40
2007,10,23,02,19,11.40
2007,10,23,02,20,11.40
2007,10,23,02,21,11.40
2007,10,23,02,22,11.40
2007,10,23,02,23,11.30
2007,10,23,02,24,11.30
2007,10,23,02,25,11.30
2007,10,23,02,26,11.30
2007,10,23,02,27,11.30
2007,10,23,02,28,11.30
2007,10,23,02,29,11.30
2007,10,23,02,30,11.30
2007,10,23,02,31,11.30
2007,10,23,02,32,11.30
2007,10,23,02,33,11.30
2007,10,23,02,34,11.30
2007,10,23,02,35,11.30
2007,10,23,02,36,11.30
2007,10,23,02,37,11.30
2007,10,23,02,38,11.30
2007,10,23,02,39,11.20
2007,10,23,02,40,11.20
2007,10,23,02,41,11.20
2007,10,23,02,42,11.20
2007,10,23,02,43,11.20
2007,10,23,02,44,11.10
2007,10,23,02,45,11.10
2007,10,23,02,46,11.10
2007,10,23,02,47,11.10
2007,10,23,02,48,11.10
2007,10,23,02,49,11.10
2007,10,23,02,50,11.10
2007,10,23,02,51,11.10
2007,10,23,02,52,11.10
2007,10,23,02,53,11.10
2007,10,23,02,54,11.10
2007,10,23,02,55,11.10
2007,10,23,02,56,11.00
2007,10,23,02,57,11.00
2007,10,23,02,58,11.00
2007,10,23,02,59,10.90
2007,10,23,03,00,10.90
2007,10,23,03,01,10.90
2007,10,23,03,02,10.90
2007,10,23,03,03,10.90
2007,10,23,03,04,10.90
2007,10,23,03,05,10.90
2007,10,23,03,06,10.90
2007,10,23,03,07,10.90
2007,10,23,03,08,10.90
2007,10,23,03,09,10.90
2007,10,23,03,10,11.00
2007,10,23,03,11,11.00
2007,10,23,03,12,10.90
2007,10,23,03,13,10.90
2007,10,23,03,14,10.90
2007,10,23,03,15,10.80
2007,10,23,03,16,10.80
2007,10,23,03,17,10.70
2007,10,23,03,18,10.60
2007,10,23,03,19,10.60
2007,10,23,03,20,10.60
2007,10,23,03,21,10.50
2007,10,23,03,22,10.50
2007,10,23,03,23,10.40
2007,10,23,03,24,10.40
2007,10,23,03,25,10.30
2007,10,23,03,26,10.30
2007,10,23,03,27,10.30
2007,10,23,03,28,10.30
2007,10,23,03,29,10.30
2007,10,23,03,30,10.30
2007,10,23,03,31,10.20
2007,10,23,03,32,10.20
2007,10,23,03,33,10.20
2007,10,23,03,34,10.20
2007,10,23,03,35,10.20
2007,10,23,03,36,10.20
2007,10,23,03,37,10.30
2007,10,23,03,38,10.30
2007,10,23,03,39,10.30
2007,10,23,03,40,10.40
2007,10,23,03,41,10.40
2007,10,23,03,42,10.40
2007,10,23,03,43,10.50
2007,10,23,03,44,10.50
2007,10,23,03,45,10.50
2007,10,23,03,46,10.50
2007,10,23,03,47,10.50
2007,10,23,03,48,10.60
2007,10,23,03,49,10.70
2007,10,23,03,50,10.80
2007,10,23,03,51,10.80
2007,10,23,03,52,10.90
2007,10,23,03,53,10.90
2007,10,23,03,54,10.90
2007,10,23,03,55,11.00
2007,10,23,03,56,11.00
2007,10,23,03,57,11.00
2007,10,23,03,58,11.10
2007,10,23,03,59,11.10
2007,10,23,04,00,11.10
2007,10,23,04,01,11.10
2007,10,23,04,02,11.20
2007,10,23,04,03,11.20
2007,10,23,04,04,11.10
2007,10,23,04,05,11.20
2007,10,23,04,06,11.20
2007,10,23,04,07,11.20
2007,10,23,04,08,11.20
2007,10,23,04,09,11.20
2007,10,23,04,10,11.30
2007,10,23,04,11,11.30
2007,10,23,04,12,11.40
2007,10,23,04,13,11.40
2007,10,23,04,14,11.40
2007,10,23,04,15,11.50
2007,10,23,04,16,11.50
2007,10,23,04,17,11.60
2007,10,23,04,18,11.60
2007,10,23,04,19,11.70
2007,10,23,04,20,11.70
2007,10,23,04,21,11.80
2007,10,23,04,22,11.80
2007,10,23,04,23,11.80
2007,10,23,04,24,11.80
2007,10,23,04,25,11.80
2007,10,23,04,26,11.80
2007,10,23,04,27,11.80
2007,10,23,04,28,11.80
2007,10,23,04,29,11.80
2007,10,23,04,30,11.90
2007,10,23,04,31,11.90
2007,10,23,04,32,11.90
2007,10,23,04,33,11.90
2007,10,23,04,34,11.90
2007,10,23,04,35,11.90
2007,10,23,04,36,11.90
2007,10,23,04,37,11.90
2007,10,23,04,38,11.90
2007,10,23,04,39,12.00
2007,10,23,04,40,12.00
2007,10,23,04,41,12.00
2007,10,23,04,42,12.10
2007,10,23,04,43,12.10
2007,10,23,04,44,12.10
2007,10,23,04,45,12.10
2007,10,23,04,46,12.10
2007,10,23,04,47,12.20
2007,10,23,04,48,12.20
2007,10,23,04,49,12.20
2007,10,23,04,50,12.20
2007,10,23,04,51,12.20
2007,10,23,04,52,12.20
2007,10,23,04,53,12.20
2007,10,23,04,54,12.30
2007,10,23,04,55,12.30
2007,10,23,04,56,12.30
2007,10,23,04,57,12.30
2007,10,23,04,58,12.30
2007,10,23,04,59,12.30
2007,10,23,05,00,12.30
2007,10,23,05,01,12.30
2007,10,23,05,02,12.30
2007,10,23,05,03,12.30
2007,10,23,05,04,12.30
2007,10,23,05,05,12.30
2007,10,23,05,06,12.30
2007,10,23,05,07,12.30
2007,10,23,05,08,12.30
2007,10,23,05,09,12.30
2007,10,23,05,10,12.30
2007,10,23,05,11,12.30
2007,10,23,05,12,12.30
2007,10,23,05,13,12.30
2007,10,23,05,14,12.40
2007,10,23,05,15,12.40
2007,10,23,05,16,12.40
2007,10,23,05,17,12.40
2007,10,23,05,18,12.40
2007,10,23,05,19,12.40
2007,10,23,05,20,12.40
2007,10,23,05,21,12.40
2007,10,23,05,22,12.40
2007,10,23,05,23,12.40
2007,10,23,05,24,12.40
2007,10,23,05,25,12.40
2007,10,23,05,26,12.40
2007,10,23,05,27,12.40
2007,10,23,05,28,12.40
2007,10,23,05,29,12.40
2007,10,23,05,30,12.50
2007,10,23,05,31,12.50
2007,10,23,05,32,12.50
2007,10,23,05,33,12.50
2007,10,23,05,34,12.50
2007,10,23,05,35,12.50
2007,10,23,05,36,12.50
2007,10,23,05,37,12.50
2007,10,23,05,38,12.50
2007,10,23,05,39,12.50
2007,10,23,05,40,12.40
2007,10,23,05,41,12.40
2007,10,23,05,42,12.40
2007,10,23,05,43,12.40
2007,10,23,05,44,12.40
2007,10,23,05,45,12.30
2007,10,23,05,46,12.30
2007,10,23,05,47,12.30
2007,10,23,05,48,12.30
2007,10,23,05,49,12.30
2007,10,23,05,50,12.30
2007,10,23,05,51,12.30
2007,10,23,05,52,12.30
2007,10,23,05,53,12.30
2007,10,23,05,54,12.30
2007,10,23,05,55,12.30
2007,10,23,05,56,12.30
2007,10,23,05,57,12.30
2007,10,23,05,58,12.30
2007,10,23,05,59,12.30
2007,10,23,06,00,12.30
2007,10,23,06,01,12.30
2007,10,23,06,02,12.30
2007,10,23,06,03,12.30
2007,10,23,06,04,12.30
2007,10,23,06,05,12.30
2007,10,23,06,06,12.30
2007,10,23,06,07,12.30
2007,10,23,06,08,12.30
2007,10,23,06,09,12.30
2007,10,23,06,10,12.30
2007,10,23,06,11,12.30
2007,10,23,06,12,12.30
2007,10,23,06,13,12.30
2007,10,23,06,14,12.30
2007,10,23,06,15,12.30
2007,10,23,06,16,12.30
2007,10,23,06,17,12.30
2007,10,23,06,18,12.30
2007,10,23,06,19,12.30
2007,10,23,06,20,12.20
2007,10,23,06,21,12.20
2007,10,23,06,22,12.20
2007,10,23,06,23,12.20
2007,10,23,06,24,12.20
2007,10,23,06,25,12.20
2007,10,23,06,26,12.20
2007,10,23,06,27,12.20
2007,10,23,06,28,12.20
2007,10,23,06,29,12.20
2007,10,23,06,30,12.20
2007,10,23,06,31,12.20
2007,10,23,06,32,12.20
2007,10,23,06,33,12.20
2007,10,23,06,34,12.20
2007,10,23,06,35,12.20
2007,10,23,06,36,12.20
2007,10,23,06,37,12.20
2007,10,23,06,38,12.20
2007,10,23,06,39,12.20
2007,10,23,06,40,12.20
2007,10,23,06,41,12.30
2007,10,23,06,42,12.30
2007,10,23,06,43,12.30
2007,10,23,06,44,12.30
2007,10,23,06,45,12.30
2007,10,23,06,46,12.30
2007,10,23,06,47,12.30
2007,10,23,06,48,12.30
2007,10,23,06,49,12.30
2007,10,23,06,50,12.30
2007,10,23,06,51,12.30
2007,10,23,06,52,12.30
2007,10,23,06,53,12.30
2007,10,23,06,54,12.30
2007,10,23,06,55,12.30
2007,10,23,06,56,12.30
2007,10,23,06,57,12.30
2007,10,23,06,58,12.30
2007,10,23,06,59,12.30
2007,10,23,07,00,12.30
2007,10,23,07,01,12.30
2007,10,23,07,02,12.30
2007,10,23,07,03,12.30
2007,10,23,07,04,12.30
2007,10,23,07,05,12.30
2007,10,23,07,06,12.30
2007,10,23,07,07,12.30
2007,10,23,07,08,12.30
2007,10,23,07,09,12.30
2007,10,23,07,10,12.20
2007,10,23,07,11,12.20
2007,10,23,07,12,12.20
2007,10,23,07,13,12.20
2007,10,23,07,14,12.20
2007,10,23,07,15,12.20
2007,10,23,07,16,12.20
2007,10,23,07,17,12.20
2007,10,23,07,18,12.20
2007,10,23,07,19,12.20
2007,10,23,07,20,12.20
2007,10,23,07,21,12.20
2007,10,23,07,22,12.20
2007,10,23,07,23,12.20
2007,10,23,07,24,12.10
2007,10,23,07,25,12.10
2007,10,23,07,26,12.10
2007,10,23,07,27,12.10
2007,10,23,07,28,12.00
2007,10,23,07,29,12.00
2007,10,23,07,30,12.00
2007,10,23,07,31,12.00
2007,10,23,07,32,12.10
2007,10,23,07,33,12.10
2007,10,23,07,34,12.10
2007,10,23,07,35,12.10
2007,10,23,07,36,12.10
2007,10,23,07,37,12.10
2007,10,23,07,38,12.20
2007,10,23,07,39,12.20
2007,10,23,07,40,12.20
2007,10,23,07,41,12.30
2007,10,23,07,42,12.30
2007,10,23,07,43,12.40
2007,10,23,07,44,12.50
2007,10,23,07,45,12.60
2007,10,23,07,46,12.70
2007,10,23,07,47,12.70
2007,10,23,07,48,12.70
2007,10,23,07,49,12.80
2007,10,23,07,50,12.80
2007,10,23,07,51,12.80
2007,10,23,07,52,12.80
2007,10,23,07,53,12.90
2007,10,23,07,54,12.90
2007,10,23,07,55,12.90
2007,10,23,07,56,13.00
2007,10,23,07,57,13.00
2007,10,23,07,58,13.10
2007,10,23,07,59,13.10
2007,10,23,08,00,13.20
2007,10,23,08,01,13.20
2007,10,23,08,02,13.20
2007,10,23,08,03,13.30
2007,10,23,08,04,13.30
2007,10,23,08,05,13.30
2007,10,23,08,06,13.40
2007,10,23,08,07,13.40
2007,10,23,08,08,13.50
2007,10,23,08,09,13.50
2007,10,23,08,10,13.60
2007,10,23,08,11,13.60
2007,10,23,08,12,13.70
2007,10,23,08,13,13.70
2007,10,23,08,14,13.70
2007,10,23,08,15,13.70
2007,10,23,08,16,13.80
2007,10,23,08,17,13.80
2007,10,23,08,18,13.80
2007,10,23,08,19,13.80
2007,10,23,08,20,13.80
2007,10,23,08,21,13.80
2007,10,23,08,22,13.80
2007,10,23,08,23,13.80
2007,10,23,08,24,13.80
2007,10,23,08,25,13.80
2007,10,23,08,26,13.80
2007,10,23,08,27,13.80
2007,10,23,08,28,13.90
2007,10,23,08,29,13.90
2007,10,23,08,30,13.90
2007,10,23,08,31,13.90
2007,10,23,08,32,13.90
2007,10,23,08,33,13.90
2007,10,23,08,34,13.90
2007,10,23,08,35,14.00
2007,10,23,08,36,14.00
2007,10,23,08,37,14.00
2007,10,23,08,38,14.00
2007,10,23,08,39,14.10
2007,10,23,08,40,14.10
2007,10,23,08,41,14.10
2007,10,23,08,42,14.10
2007,10,23,08,43,14.10
2007,10,23,08,44,14.10
2007,10,23,08,45,14.10
2007,10,23,08,46,14.20
2007,10,23,08,47,14.20
2007,10,23,08,48,14.20
2007,10,23,08,49,14.20
2007,10,23,08,50,14.20
2007,10,23,08,51,14.30
2007,10,23,08,52,14.30
2007,10,23,08,53,14.30
2007,10,23,08,54,14.30
2007,10,23,08,55,14.30
2007,10,23,08,56,14.30
2007,10,23,08,57,14.40
2007,10,23,08,58,14.40
2007,10,23,08,59,14.40
2007,10,23,09,00,14.40
2007,10,23,09,01,14.40
2007,10,23,09,02,14.50
2007,10,23,09,03,14.60
2007,10,23,09,04,14.60
2007,10,23,09,05,14.60
2007,10,23,09,06,14.60
2007,10,23,09,07,14.70
2007,10,23,09,08,14.70
2007,10,23,09,09,14.70
2007,10,23,09,10,14.70
2007,10,23,09,11,14.70
2007,10,23,09,12,14.80
2007,10,23,09,13,14.80
2007,10,23,09,14,14.80
2007,10,23,09,15,14.90
2007,10,23,09,16,15.00
2007,10,23,09,17,15.00
2007,10,23,09,18,15.00
2007,10,23,09,19,15.00
2007,10,23,09,20,15.00
2007,10,23,09,21,15.00
2007,10,23,09,22,15.00
2007,10,23,09,23,15.00
2007,10,23,09,24,15.10
2007,10,23,09,25,15.20
2007,10,23,09,26,15.20
2007,10,23,09,27,15.30
2007,10,23,09,28,15.30
2007,10,23,09,29,15.40
2007,10,23,09,30,15.40
2007,10,23,09,31,15.40
2007,10,23,09,32,15.50
2007,10,23,09,33,15.50
2007,10,23,09,34,15.60
2007,10,23,09,35,15.60
2007,10,23,09,36,15.70
2007,10,23,09,37,15.70
2007,10,23,09,38,15.70
2007,10,23,09,39,15.80
2007,10,23,09,40,15.80
2007,10,23,09,41,15.80
2007,10,23,09,42,15.90
2007,10,23,09,43,15.90
2007,10,23,09,44,15.90
2007,10,23,09,45,16.00
2007,10,23,09,46,16.00
2007,10,23,09,47,16.00
2007,10,23,09,48,16.10
2007,10,23,09,49,16.10
2007,10,23,09,50,16.10
2007,10,23,09,51,16.10
2007,10,23,09,52,16.10
2007,10,23,09,53,16.20
2007,10,23,09,54,16.20
2007,10,23,09,55,16.20
2007,10,23,09,56,16.20
2007,10,23,09,57,16.30
2007,10,23,09,58,16.30
2007,10,23,09,59,16.30
2007,10,23,10,00,16.40
2007,10,23,10,01,16.40
2007,10,23,10,02,16.40
2007,10,23,10,03,16.40
2007,10,23,10,04,16.50
2007,10,23,10,05,16.50
2007,10,23,10,06,16.50
2007,10,23,10,07,16.60
2007,10,23,10,08,16.60
2007,10,23,10,09,16.60
2007,10,23,10,10,16.70
2007,10,23,10,11,16.70
2007,10,23,10,12,16.70
2007,10,23,10,13,16.80
2007,10,23,10,14,16.80
2007,10,23,10,15,16.80
2007,10,23,10,16,16.80
2007,10,23,10,17,16.80
2007,10,23,10,18,16.80
2007,10,23,10,19,16.80
2007,10,23,10,20,16.80
2007,10,23,10,21,16.80
2007,10,23,10,22,16.80
2007,10,23,10,23,16.90
2007,10,23,10,24,16.90
2007,10,23,10,25,16.90
2007,10,23,10,26,16.90
2007,10,23,10,27,17.00
2007,10,23,10,28,17.00
2007,10,23,10,29,17.00
2007,10,23,10,30,17.10
2007,10,23,10,31,17.10
2007,10,23,10,32,17.20
2007,10,23,10,33,17.20
2007,10,23,10,34,17.20
2007,10,23,10,35,17.20
2007,10,23,10,36,17.30
2007,10,23,10,37,17.40
2007,10,23,10,38,17.40
2007,10,23,10,39,17.40
2007,10,23,10,40,17.50
2007,10,23,10,41,17.50
2007,10,23,10,42,17.50
2007,10,23,10,43,17.60
2007,10,23,10,44,17.60
2007,10,23,10,45,17.60
2007,10,23,10,46,17.60
2007,10,23,10,47,17.60
2007,10,23,10,48,17.60
2007,10,23,10,49,17.60
2007,10,23,10,50,17.60
2007,10,23,10,51,17.60
2007,10,23,10,52,17.60
2007,10,23,10,53,17.60
2007,10,23,10,54,17.60
2007,10,23,10,55,17.60
2007,10,23,10,56,17.60
2007,10,23,10,57,17.60
2007,10,23,10,58,17.60
2007,10,23,10,59,17.60
2007,10,23,11,00,17.60
2007,10,23,11,01,17.60
2007,10,23,11,02,17.70
2007,10,23,11,03,17.70
2007,10,23,11,04,17.70
2007,10,23,11,05,17.80
2007,10,23,11,06,17.80
2007,10,23,11,07,17.90
2007,10,23,11,08,18.00
2007,10,23,11,09,18.00
2007,10,23,11,10,18.10
2007,10,23,11,11,18.10
2007,10,23,11,12,18.20
2007,10,23,11,13,18.20
2007,10,23,11,14,18.30
2007,10,23,11,15,18.30
2007,10,23,11,16,18.40
2007,10,23,11,17,18.50
2007,10,23,11,18,18.50
2007,10,23,11,19,18.50
2007,10,23,11,20,18.50
2007,10,23,11,21,18.40
2007,10,23,11,22,18.40
2007,10,23,11,23,18.40
2007,10,23,11,24,18.40
2007,10,23,11,25,18.40
2007,10,23,11,26,18.40
2007,10,23,11,27,18.40
2007,10,23,11,28,18.40
2007,10,23,11,29,18.40
2007,10,23,11,30,18.40
2007,10,23,11,31,18.40
2007,10,23,11,32,18.40
2007,10,23,11,33,18.50
2007,10,23,11,34,18.50
2007,10,23,11,35,18.60
2007,10,23,11,36,18.60
2007,10,23,11,37,18.60
2007,10,23,11,38,18.60
2007,10,23,11,39,18.60
2007,10,23,11,40,18.60
2007,10,23,11,41,18.70
2007,10,23,11,42,18.70
2007,10,23,11,43,18.70
2007,10,23,11,44,18.80
2007,10,23,11,45,18.80
2007,10,23,11,46,18.80
2007,10,23,11,47,18.80
2007,10,23,11,48,18.90
2007,10,23,11,49,18.90
2007,10,23,11,50,18.90
2007,10,23,11,51,18.90
2007,10,23,11,52,19.00
2007,10,23,11,53,19.10
2007,10,23,11,54,19.10
2007,10,23,11,55,19.10
2007,10,23,11,56,19.20
2007,10,23,11,57,19.20
2007,10,23,11,58,19.20
2007,10,23,11,59,19.10
2007,10,23,12,00,19.00
2007,10,23,12,01,19.00
2007,10,23,12,02,19.00
2007,10,23,12,03,19.00
2007,10,23,12,04,19.00
2007,10,23,12,05,19.00
2007,10,23,12,06,19.00
2007,10,23,12,07,19.00
2007,10,23,12,08,19.00
2007,10,23,12,09,19.00
2007,10,23,12,10,19.00
2007,10,23,12,11,19.00
2007,10,23,12,12,19.00
2007,10,23,12,13,18.90
2007,10,23,12,14,18.90
2007,10,23,12,15,18.90
2007,10,23,12,16,18.90
2007,10,23,12,17,18.90
2007,10,23,12,18,18.80
2007,10,23,12,19,18.80
2007,10,23,12,20,18.80
2007,10,23,12,21,18.70
2007,10,23,12,22,18.70
2007,10,23,12,23,18.60
2007,10,23,12,24,18.60
2007,10,23,12,25,18.70
2007,10,23,12,26,18.70
2007,10,23,12,27,18.70
2007,10,23,12,28,18.70
2007,10,23,12,29,18.70
2007,10,23,12,30,18.70
2007,10,23,12,31,18.70
2007,10,23,12,32,18.70
2007,10,23,12,33,18.80
2007,10,23,12,34,18.80
2007,10,23,12,35,18.90
2007,10,23,12,36,18.90
2007,10,23,12,37,19.00
2007,10,23,12,38,19.00
2007,10,23,12,39,19.00
2007,10,23,12,40,19.00
2007,10,23,12,41,19.10
2007,10,23,12,42,19.10
2007,10,23,12,43,19.10
2007,10,23,12,44,19.00
2007,10,23,12,45,19.00
2007,10,23,12,46,19.00
2007,10,23,12,47,19.00
2007,10,23,12,48,19.00
2007,10,23,12,49,19.00
2007,10,23,12,50,19.00
2007,10,23,12,51,19.10
2007,10,23,12,52,19.10
2007,10,23,12,53,19.10
2007,10,23,12,54,19.10
2007,10,23,12,55,19.10
2007,10,23,12,56,19.20
2007,10,23,12,57,19.20
2007,10,23,12,58,19.20
2007,10,23,12,59,19.20
2007,10,23,13,00,19.30
2007,10,23,13,01,19.30
2007,10,23,13,02,19.30
2007,10,23,13,03,19.30
2007,10,23,13,04,19.30
2007,10,23,13,05,19.30
2007,10,23,13,06,19.30
2007,10,23,13,07,19.30
2007,10,23,13,08,19.30
2007,10,23,13,09,19.40
2007,10,23,13,10,19.30
2007,10,23,13,11,19.30
2007,10,23,13,12,19.30
2007,10,23,13,13,19.30
2007,10,23,13,14,19.30
2007,10,23,13,15,19.30
2007,10,23,13,16,19.40
2007,10,23,13,17,19.40
2007,10,23,13,18,19.40
2007,10,23,13,19,19.40
2007,10,23,13,20,19.40
2007,10,23,13,21,19.40
2007,10,23,13,22,19.50
2007,10,23,13,23,19.50
2007,10,23,13,24,19.40
2007,10,23,13,25,19.40
2007,10,23,13,26,19.50
2007,10,23,13,27,19.50
2007,10,23,13,28,19.40
2007,10,23,13,29,19.40
2007,10,23,13,30,19.40
2007,10,23,13,31,19.40
2007,10,23,13,32,19.30
2007,10,23,13,33,19.30
2007,10,23,13,34,19.30
2007,10,23,13,35,19.30
2007,10,23,13,36,19.30
2007,10,23,13,37,19.30
2007,10,23,13,38,19.30
2007,10,23,13,39,19.30
2007,10,23,13,40,19.30
2007,10,23,13,41,19.30
2007,10,23,13,42,19.40
2007,10,23,13,43,19.40
2007,10,23,13,44,19.50
2007,10,23,13,45,19.60
2007,10,23,13,46,19.70
2007,10,23,13,47,19.70
2007,10,23,13,48,19.70
2007,10,23,13,49,19.80
2007,10,23,13,50,19.80
2007,10,23,13,51,19.80
2007,10,23,13,52,19.70
2007,10,23,13,53,19.70
2007,10,23,13,54,19.70
2007,10,23,13,55,19.60
2007,10,23,13,56,19.60
2007,10,23,13,57,19.60
2007,10,23,13,58,19.70
2007,10,23,13,59,19.70
2007,10,23,14,00,19.70
2007,10,23,14,01,19.70
2007,10,23,14,02,19.80
2007,10,23,14,03,19.80
2007,10,23,14,04,19.70
2007,10,23,14,05,19.70
2007,10,23,14,06,19.60
2007,10,23,14,07,19.70
2007,10,23,14,08,19.70
2007,10,23,14,09,19.80
2007,10,23,14,10,19.80
2007,10,23,14,11,19.80
2007,10,23,14,12,19.90
2007,10,23,14,13,19.90
2007,10,23,14,14,19.90
2007,10,23,14,15,20.00
2007,10,23,14,16,20.10
2007,10,23,14,17,20.10
2007,10,23,14,18,20.20
2007,10,23,14,19,20.30
2007,10,23,14,20,20.30
2007,10,23,14,21,20.30
2007,10,23,14,22,20.40
2007,10,23,14,23,20.40
2007,10,23,14,24,20.30
2007,10,23,14,25,20.30
2007,10,23,14,26,20.40
2007,10,23,14,27,20.30
2007,10,23,14,28,20.30
2007,10,23,14,29,20.30
2007,10,23,14,30,20.40
2007,10,23,14,31,20.40
2007,10,23,14,32,20.50
2007,10,23,14,33,20.50
2007,10,23,14,34,20.60
2007,10,23,14,35,20.60
2007,10,23,14,36,20.60
2007,10,23,14,37,20.70
2007,10,23,14,38,20.70
2007,10,23,14,39,20.60
2007,10,23,14,40,20.60
2007,10,23,14,41,20.60
2007,10,23,14,42,20.60
2007,10,23,14,43,20.60
2007,10,23,14,44,20.60
2007,10,23,14,45,20.60
2007,10,23,14,46,20.60
2007,10,23,14,47,20.70
2007,10,23,14,48,20.70
2007,10,23,14,49,20.70
2007,10,23,14,50,20.70
2007,10,23,14,51,20.80
2007,10,23,14,52,20.80
2007,10,23,14,53,20.80
2007,10,23,14,54,20.80
2007,10,23,14,55,20.90
2007,10,23,14,56,20.80
2007,10,23,14,57,20.80
2007,10,23,14,58,20.80
2007,10,23,14,59,20.70
2007,10,23,15,00,20.70
2007,10,23,15,01,20.70
2007,10,23,15,02,20.70
2007,10,23,15,03,20.70
2007,10,23,15,04,20.70
2007,10,23,15,05,20.70
2007,10,23,15,06,20.70
2007,10,23,15,07,20.70
2007,10,23,15,08,20.60
2007,10,23,15,09,20.60
2007,10,23,15,10,20.60
2007,10,23,15,11,20.60
2007,10,23,15,12,20.50
2007,10,23,15,13,20.50
2007,10,23,15,14,20.50
2007,10,23,15,15,20.50
2007,10,23,15,16,20.60
2007,10,23,15,17,20.60
2007,10,23,15,18,20.60
2007,10,23,15,19,20.60
2007,10,23,15,20,20.60
2007,10,23,15,21,20.70
2007,10,23,15,22,20.70
2007,10,23,15,23,20.70
2007,10,23,15,24,20.60
2007,10,23,15,25,20.60
2007,10,23,15,26,20.50
2007,10,23,15,27,20.40
2007,10,23,15,28,20.30
2007,10,23,15,29,20.10
2007,10,23,15,30,19.90
2007,10,23,15,31,19.60
2007,10,23,15,32,19.30
2007,10,23,15,33,19.20
2007,10,23,15,34,19.10
2007,10,23,15,35,19.10
2007,10,23,15,36,19.10
2007,10,23,15,37,19.00
2007,10,23,15,38,19.00
2007,10,23,15,39,19.00
2007,10,23,15,40,18.90
2007,10,23,15,41,18.90
2007,10,23,15,42,18.80
2007,10,23,15,43,18.90
2007,10,23,15,44,18.90
2007,10,23,15,45,18.90
2007,10,23,15,46,18.90
2007,10,23,15,47,18.90
2007,10,23,15,48,19.00
2007,10,23,15,49,19.00
2007,10,23,15,50,19.00
2007,10,23,15,51,18.90
2007,10,23,15,52,18.90
2007,10,23,15,53,18.80
2007,10,23,15,54,18.80
2007,10,23,15,55,18.70
2007,10,23,15,56,18.70
2007,10,23,15,57,18.60
2007,10,23,15,58,18.60
2007,10,23,15,59,18.50
2007,10,23,16,00,18.40
2007,10,23,16,01,18.40
2007,10,23,16,02,18.30
2007,10,23,16,03,18.20
2007,10,23,16,04,18.20
2007,10,23,16,05,18.20
2007,10,23,16,06,18.20
2007,10,23,16,07,18.10
2007,10,23,16,08,18.10
2007,10,23,16,09,18.10
2007,10,23,16,10,18.10
2007,10,23,16,11,18.00
2007,10,23,16,12,17.90
2007,10,23,16,13,17.70
2007,10,23,16,14,17.50
2007,10,23,16,15,17.30
2007,10,23,16,16,17.10
2007,10,23,16,17,17.00
2007,10,23,16,18,16.90
2007,10,23,16,19,16.80
2007,10,23,16,20,16.80
2007,10,23,16,21,16.80
2007,10,23,16,22,16.80
2007,10,23,16,23,16.80
2007,10,23,16,24,16.80
2007,10,23,16,25,16.90
2007,10,23,16,26,16.90
2007,10,23,16,27,17.00
2007,10,23,16,28,17.00
2007,10,23,16,29,17.00
2007,10,23,16,30,17.00
2007,10,23,16,31,16.90
2007,10,23,16,32,16.80
2007,10,23,16,33,16.70
2007,10,23,16,34,16.60
2007,10,23,16,35,16.50
2007,10,23,16,36,16.50
2007,10,23,16,37,16.40
2007,10,23,16,38,16.40
2007,10,23,16,39,16.30
2007,10,23,16,40,16.30
2007,10,23,16,41,16.40
2007,10,23,16,42,16.40
2007,10,23,16,43,16.40
2007,10,23,16,44,16.50
2007,10,23,16,45,16.50
2007,10,23,16,46,16.60
2007,10,23,16,47,16.70
2007,10,23,16,48,17.00
2007,10,23,16,49,17.20
2007,10,23,16,50,17.60
2007,10,23,16,51,17.90
2007,10,23,16,52,18.20
2007,10,23,16,53,18.40
2007,10,23,16,54,18.60
2007,10,23,16,55,18.80
2007,10,23,16,56,18.90
2007,10,23,16,57,19.00
2007,10,23,16,58,19.10
2007,10,23,16,59,19.20
2007,10,23,17,00,19.30
2007,10,23,17,01,19.30
2007,10,23,17,02,19.40
2007,10,23,17,03,19.40
2007,10,23,17,04,19.40
2007,10,23,17,05,19.50
2007,10,23,17,06,19.50
2007,10,23,17,07,19.40
2007,10,23,17,08,19.40
2007,10,23,17,09,19.40
2007,10,23,17,10,19.40
2007,10,23,17,11,19.40
2007,10,23,17,12,19.40
2007,10,23,17,13,19.40
2007,10,23,17,14,19.30
2007,10,23,17,15,19.30
2007,10,23,17,16,19.30
2007,10,23,17,17,19.20
2007,10,23,17,18,19.20
2007,10,23,17,19,19.20
2007,10,23,17,20,19.10
2007,10,23,17,21,19.10